EW3517 Weather Reports


time (UTC)temp
C
wind
direction
speed
KPH
gust
KPH
rain 1hr
cm
rain 24hr
cm
rain mn
cm
humidity
%
barometer
mb
20260906203015 38 264 0.0 0.0 0.00 0.00 0.00 32 1007.6
20260906201531 39 107 0.0 0.0 0.00 0.00 0.00 32 1007.7
20260906200012 39 279 0.0 0.0 0.00 0.00 0.00 33 1008.0
20260906194506 38 138 0.0 0.0 0.00 0.00 0.00 33 1008.1
20260906193006 37 78 0.0 0.0 0.00 0.00 0.00 35 1008.4
20260906191504 37 113 0.0 0.0 0.00 0.00 0.00 36 1008.6
20260906190004 37 177 0.0 0.0 0.00 0.00 0.00 37 1008.8
20260906184503 37 104 0.0 0.0 0.00 0.00 0.00 39 1009.0
20260906183002 37 132 0.0 0.0 0.00 0.00 0.00 39 1009.2
20260906181605 37 24 0.0 0.0 0.00 0.00 0.00 38 1009.5
20260906180100 37 130 0.0 0.0 0.00 0.00 0.00 40 1009.6
20260906174610 37 113 0.0 0.0 0.00 0.00 0.00 39 1010.0
20260906173056 37 166 0.0 0.0 0.00 0.00 0.00 40 1010.2
20260906171553 36 202 0.0 0.0 0.00 0.00 0.00 42 1010.5
20260906170051 35 246 0.0 0.0 0.00 0.00 0.00 43 1010.8
20260906164549 36 236 0.0 0.0 0.00 0.00 0.00 41 1011.0
20260906163051 35 148 0.0 0.0 0.00 0.00 0.00 45 1011.0
20260906161547 34 257 0.0 0.0 0.00 0.00 0.00 46 1010.9
20260906160040 34 163 0.0 0.0 0.00 0.00 0.00 45 1010.9
20260906154541 33 261 0.0 0.0 0.00 0.00 0.00 49 1010.8
20260906153033 33 197 0.0 0.0 0.00 0.00 0.00 50 1010.8
20260906151529 32 210 0.0 0.0 0.00 0.00 0.00 51 1010.7
20260906150028 32 210 0.0 0.0 0.00 0.00 0.00 52 1010.7
20260906144522 32 211 0.0 0.0 0.00 0.00 0.00 53 1010.7
20260906143018 31 211 0.0 0.0 0.00 0.00 0.00 55 1010.7
20260906141516 31 209 0.0 0.0 0.00 0.00 0.00 58 1010.6
20260906140018 30 135 0.0 0.0 0.00 0.00 0.00 59 1010.6
20260906134510 28 134 0.0 0.0 0.00 0.00 0.00 62 1010.4
20260906133007 27 134 0.0 0.0 0.00 0.00 0.00 67 1010.3
20260906131504 26 134 0.0 0.0 0.00 0.00 0.00 70 1010.2
20260906130107 26 134 0.0 0.0 0.00 0.00 0.00 70 1010.1
20260906124501 25 134 0.0 0.0 0.00 0.00 0.00 70 1010.0
20260906123100 25 134 0.0 0.0 0.00 0.00 0.00 70 1009.9
20260906121604 25 134 0.0 0.0 0.00 0.00 0.00 69 1009.7
20260906120104 25 134 0.0 0.0 0.00 0.00 0.00 69 1009.6
20260906114608 25 134 0.0 0.0 0.00 0.00 0.00 70 1009.4
20260906113053 25 134 0.0 0.0 0.00 0.00 0.00 70 1009.2
20260906111612 25 134 0.0 0.0 0.00 0.00 0.00 69 1009.0
20260906110050 25 134 0.0 0.0 0.00 0.00 0.00 68 1009.0
20260906104548 26 134 0.0 0.0 0.00 0.00 0.00 69 1008.9
20260906103048 26 134 0.0 0.0 0.00 0.00 0.00 68 1008.8
20260906101547 26 134 0.0 0.0 0.00 0.00 0.00 68 1008.7
20260906100046 26 134 0.0 0.0 0.00 0.00 0.00 70 1008.7
20260906094545 26 134 0.0 0.0 0.00 0.00 0.00 67 1008.7
20260906093050 26 134 0.0 0.0 0.00 0.00 0.00 67 1008.6
20260906091542 26 134 0.0 0.0 0.00 0.00 0.00 69 1008.6
20260906090040 26 134 0.0 0.0 0.00 0.00 0.00 66 1008.5
20260906084539 26 134 0.0 0.0 0.00 0.00 0.00 66 1008.5
20260906083037 26 134 0.0 0.0 0.00 0.00 0.00 65 1008.5
20260906081548 27 134 0.0 0.0 0.00 0.00 0.00 67 1008.4
20260906080033 27 134 0.0 0.0 0.00 0.00 0.00 64 1008.4
20260906074532 27 134 0.0 0.0 0.00 0.00 0.00 62 1008.4
20260906073046 27 134 0.0 0.0 0.00 0.00 0.00 62 1008.5
20260906071529 27 134 0.0 0.0 0.00 0.00 0.00 61 1008.5
20260906070036 27 134 0.0 0.0 0.00 0.00 0.00 60 1008.6
20260906064523 28 134 0.0 0.0 0.00 0.00 0.00 58 1008.5
20260906063022 28 134 0.0 0.0 0.00 0.00 0.00 57 1008.5
20260906061521 28 134 0.0 0.0 0.00 0.00 0.00 55 1008.5
20260906060019 28 134 0.0 0.0 0.00 0.00 0.00 56 1008.5
20260906054522 28 134 0.0 0.0 0.00 0.00 0.00 57 1008.4
20260906053015 28 134 0.0 0.0 0.00 0.00 0.00 56 1008.3
20260906051520 29 134 0.0 0.0 0.00 0.00 0.00 56 1008.1
20260906050009 30 134 0.0 0.0 0.00 0.00 0.00 53 1008.1
20260906044509 30 134 0.0 0.0 0.00 0.00 0.00 52 1008.2
20260906043007 30 134 0.0 0.0 0.00 0.00 0.00 51 1008.1
20260906041506 31 134 0.0 0.0 0.00 0.00 0.00 49 1008.1
20260906040008 31 134 0.0 0.0 0.00 0.00 0.00 48 1008.3
20260906034505 32 134 0.0 0.0 0.00 0.00 0.00 47 1008.2
20260906033004 32 134 0.0 0.0 0.00 0.00 0.00 46 1008.0
20260906031509 32 134 0.0 0.0 0.00 0.00 0.00 46 1008.0
20260906030005 32 134 0.0 0.0 0.00 0.00 0.00 45 1008.0
20260906024503 32 134 0.0 0.0 0.00 0.00 0.00 45 1007.8
20260906023002 33 134 0.0 0.0 0.00 0.00 0.00 44 1007.7
20260906021502 33 134 0.0 0.0 0.00 0.00 0.00 44 1007.5
20260906020101 33 133 0.0 0.0 0.00 0.00 0.00 43 1007.4
20260906014700 34 133 0.0 0.0 0.00 0.00 0.00 41 1007.3
20260906013100 34 130 0.0 0.0 0.00 0.00 0.00 40 1007.1
20260906011600 35 126 0.0 0.0 0.00 0.00 0.00 39 1007.0
20260906010059 35 126 0.0 0.0 0.00 0.00 0.00 38 1006.9
20260906004612 36 134 0.0 0.0 0.00 0.00 0.00 37 1006.7
20260906003058 36 111 0.0 0.0 0.00 0.00 0.00 36 1006.7
20260906001557 36 133 0.0 0.0 0.00 0.00 0.00 35 1006.6
20260906000107 37 109 0.0 0.0 0.00 0.00 0.00 34 1006.5
20260905234601 37 121 0.0 0.0 0.00 0.00 0.00 34 1006.4
20260905233057 37 154 0.0 0.0 0.00 0.00 0.00 35 1006.2
20260905231556 38 153 0.0 0.0 0.00 0.00 0.00 33 1006.2
20260905230054 38 138 0.0 0.0 0.00 0.00 0.00 33 1006.2
20260905224604 38 146 0.0 0.0 0.00 0.00 0.00 33 1006.1
20260905223054 38 244 0.0 0.0 0.00 0.00 0.00 34 1006.1
20260905221551 38 302 0.0 0.0 0.00 0.00 0.00 33 1006.2
20260905220051 38 126 0.0 0.0 0.00 0.00 0.00 33 1006.3
20260905214549 38 153 0.0 0.0 0.00 0.00 0.00 33 1006.5
20260905213047 38 316 0.0 0.0 0.00 0.00 0.00 33 1006.6
20260905211546 38 273 0.0 0.0 0.00 0.00 0.00 33 1006.8
20260905210044 38 115 0.0 0.0 0.00 0.00 0.00 34 1007.0
20260905204541 38 165 0.0 0.0 0.00 0.00 0.00 35 1007.2